Kuchera_Ratio
1.2 0.0 1.8 2.3 1.8 1.2 5.2 1.3 10.1 1.1 2.3 0.0 0.0 0.0 0.0 0.0 0.0 0.0 0.0 0.0 0.0 0.0 0.0 0.0 0.0 0.0 0.0 0.0 0.0 0.0 0.0 0.0 0.0 0.0 0.0 0.0 0.0 0.0 0.0 0.0 0.0 0.0 0.0 0.0
5.9 0.0 0.5 4.0 0.4 0.0 0.0 0.0 0.4 0.0 0.0 0.0 0.0 0.0 0.0 0.0 0.0 0.0 0.0 0.0 0.0 0.0 0.0 0.0 0.0 0.0 0.0 0.0 0.0 0.0 0.0 0.0 0.0 0.0 0.0 0.0 0.0 0.0 0.0 0.0 0.0 0.0 0.0 0.0
13.6 3.6 3.9 12.9 2.2 0.0 0.0 0.0 0.0 3.8 0.0 0.0 0.0 0.0 0.0 0.0 0.0 0.0 0.0 0.0 0.0 0.0 0.0 0.0 0.0 0.0 0.0 0.0 0.0 0.0 0.0 0.0 0.0 0.0 0.0 0.0 0.0 0.0 0.0 0.0 0.0 0.0 0.0 0.0
13.2 3.9 15.3 0.9 0.0 0.0 0.0 0.0 0.0 0.0 0.0 0.0 0.0 0.0 0.0 0.0 0.0 0.0 0.0 0.0 0.0 0.0 0.0 0.0 0.0 0.0 0.0 0.0 0.0 0.0 0.0 0.0 0.0 0.0 0.0 0.0 0.0 0.0 0.0 0.0 0.0 0.0 0.0 0.0
11.6 12.9 3.5 0.1 0.0 0.0 0.0 0.0 0.0 0.0 0.0 0.0 0.0 0.0 0.0 0.0 0.0 0.0 0.0 0.0 0.0 0.0 0.0 0.0 0.0 0.0 0.0 0.0 0.0 0.0 0.0 0.0 0.0 0.0 0.0 0.0 0.0 0.0 0.0 0.0 0.0 0.0 0.0 0.0
11.2 14.3 15.0 2.3 0.0 0.0 0.0 7.4 0.0 0.0 0.0 0.0 0.0 1.3 0.0 0.0 0.0 0.0 0.0 0.0 0.0 0.0 0.0 0.0 0.0 0.0 0.0 0.0 0.0 0.0 0.0 0.0 0.0 0.0 0.0 0.0 0.0 0.0 0.0 0.0 0.0 0.0 0.0 0.0
11.6 12.1 7.1 0.0 0.0 0.0 8.2 4.7 0.0 0.0 0.0 0.0 0.0 0.0 0.0 0.0 0.0 0.0 0.0 0.0 0.0 0.0 0.0 0.0 0.0 0.0 0.0 0.0 0.0 0.0 0.0 0.0 0.0 0.0 0.0 0.0 0.0 0.0 0.0 0.0 0.0 0.0 0.0 0.0
11.3 12.8 14.7 0.0 0.0 2.3 0.0 0.0 0.0 0.0 0.0 0.0 0.0 0.0 0.0 0.0 0.0 0.0 0.0 0.0 0.0 0.0 0.0 0.0 0.0 0.0 0.0 0.0 0.0 0.0 0.0 0.0 0.0 0.0 0.0 0.0 0.0 0.0 0.0 0.0 0.0 0.0 0.0 0.0
8.6 8.1 0.0 0.0 0.0 0.0 0.0 0.0 0.0 0.0 0.0 0.0 0.0 0.0 0.0 0.0 0.0 0.0 0.0 0.0 0.0 0.0 0.0 0.0 0.0 0.0 0.0 0.0 0.0 0.0 0.0 0.0 0.0 0.0 0.0 0.0 0.0 0.0 0.0 0.0 0.0 0.4 0.9 0.8
3.3 1.4 0.3 0.0 0.0 0.0 0.0 0.0 0.0 0.0 0.0 0.0 0.0 0.0 0.0 0.0 0.0 0.0 0.0 0.0 0.0 0.0 0.0 0.0 0.0 0.0 0.0 0.0 0.0 0.0 0.0 0.0 0.0 0.0 0.0 0.0 0.0 0.0 0.0 0.0 0.0 0.0 0.7 1.2
7.6 3.9 0.6 0.0 0.0 0.0 0.0 0.0 0.0 0.0 0.0 0.0 0.0 0.0 0.0 0.0 0.0 0.0 0.0 0.0 0.0 0.0 0.0 0.0 0.0 0.0 0.0 0.0 0.0 0.0 0.0 0.0 0.0 0.0 0.0 0.0 0.0 0.0 0.0 0.0 0.0 0.0 0.0 0.0
9.1 1.3 1.4 3.7 1.9 0.0 0.0 0.0 0.0 0.0 0.0 0.0 0.0 0.0 0.0 0.0 0.0 0.0 0.0 0.0 0.0 0.0 0.0 0.0 0.0 0.0 0.0 0.0 0.0 0.0 0.0 0.0 0.0 0.0 0.0 0.0 0.2 0.6 0.0 0.0 0.0 0.0 0.0 0.0
4.7 0.2 1.8 3.6 4.7 3.2 4.0 2.5 0.3 0.7 0.0 0.0 0.0 0.0 0.0 0.0 0.0 0.0 0.0 0.0 0.0 0.0 0.0 0.0 0.0 0.0 0.0 0.0 0.0 0.0 0.0 0.0 0.0 0.0 0.4 1.2 2.0 2.2 3.3 0.5 0.0 0.0 0.0 0.0
4.1 3.6 6.5 5.8 6.6 2.3 1.6 0.0 0.0 0.0 0.0 0.0 0.0 0.0 0.0 0.7 1.1 2.5 3.5 1.6 0.0 0.0 0.0 0.0 0.0 0.0 0.0 0.0 0.0 0.0 0.0 0.0 0.0 0.6 1.6 2.2 2.9 4.0 3.9 4.7 5.7 5.0 0.0 0.0
6.0 4.5 5.1 5.0 6.0 5.9 2.7 2.0 3.1 3.5 2.2 2.8 1.4 2.6 2.4 4.3 5.5 5.9 4.6 3.4 2.3 3.2 3.7 3.1 3.2 2.9 0.0 0.0 0.0 0.0 0.0 0.8 1.1 2.1 2.5 2.9 4.0 4.9 4.8 5.4 5.3 5.1 5.4 0.7
7.7 7.8 6.1 6.6 6.5 5.9 5.5 5.5 6.6 6.4 5.4 5.1 4.9 4.9 4.2 4.7 5.7 5.9 5.2 5.3 7.8 9.2 7.0 6.4 6.5 5.3 3.3 2.3 2.9 3.0 3.4 1.9 3.5 3.7 5.2 5.8 5.9 6.2 6.5 6.3 5.8 5.7 6.0 5.2
10.8 11.8 10.6 10.8 9.9 9.0 8.5 7.0 6.4 5.4 5.7 5.6 5.6 5.2 5.0 5.6 6.1 6.6 6.0 5.8 6.2 7.2 8.4 8.9 8.9 6.4 5.7 5.5 5.2 5.7 5.6 5.5 2.0 6.0 6.3 6.4 6.5 6.8 6.8 7.1 7.0 6.6 6.4 5.0
10.5 10.3 8.4 8.3 9.2 9.2 8.5 7.1 7.3 6.6 6.7 4.5 4.8 6.3 8.1 7.8 8.6 8.0 7.4 7.8 8.9 7.6 7.0 5.7 4.8 5.0 5.4 5.3 5.6 6.3 7.4 7.6 7.5 7.5 7.4 7.8 8.0 8.0 8.7 9.3 9.5 9.9 9.8 9.4
9.2 9.9 9.2 10.1 10.3 10.9 11.3 11.3 10.8 10.2 9.8 9.5 9.7 10.7 10.1 10.0 9.8 9.7 9.1 8.6 9.2 9.9 8.6 4.4 4.1 4.7 6.3 5.0 4.4 6.2 7.3 8.4 8.8 9.0 8.6 7.1 7.7 9.5 10.1 10.4 10.7 10.0 8.1 7.4
11.8 10.6 10.5 11.0 10.7 11.9 12.7 12.3 12.2 12.5 12.1 12.2 12.2 12.7 12.9 12.4 11.8 11.1 10.3 10.7 10.2 9.2 7.2 7.4 7.8 8.5 9.0 8.7 4.0 7.4 10.3 10.0 9.9 9.7 9.8 10.0 10.0 10.1 9.5 8.1 9.5 8.4 8.1 7.9
12.8 12.2 12.4 12.6 12.8 12.6 12.8 13.2 13.7 14.1 13.4 13.2 13.8 14.1 14.0 13.4 13.1 12.9 12.8 13.3 11.6 8.8 9.0 8.4 10.0 9.5 8.7 8.1 8.2 8.7 9.7 10.5 11.0 11.0 10.9 10.5 9.8 9.5 9.9 9.9 9.5 8.3 8.2 8.3
13.9 14.0 13.5 13.3 13.4 13.6 13.4 13.6 13.9 13.9 14.2 14.0 13.8 14.0 14.2 14.5 14.3 13.9 12.6 12.9 12.4 5.8 10.9 11.6 12.0 8.9 8.2 3.0 8.8 9.6 10.4 11.2 11.7 11.5 12.0 12.0 12.1 12.1 11.9 11.3 11.6 10.7 10.3 10.4
14.6 14.2 13.6 14.2 14.9 14.9 14.1 14.3 14.5 14.2 14.5 14.3 14.4 14.4 14.6 14.3 14.3 15.2 15.2 13.0 12.7 11.0 12.2 12.7 8.6 5.5 4.4 10.4 11.2 11.8 12.1 12.3 12.4 12.2 12.0 11.6 12.1 12.1 12.2 12.1 12.0 11.9 11.5 11.2
15.1 14.5 14.8 14.5 14.5 14.8 15.9 15.0 14.8 14.2 14.4 14.0 13.9 13.7 14.4 15.3 14.4 13.7 13.9 11.4 9.2 9.2 10.9 11.3 9.4 6.1 5.0 13.1 13.4 13.4 13.3 13.2 13.2 13.2 13.0 9.4 12.1 11.8 12.1 12.2 12.3 12.0 11.6 11.7
15.4 15.3 15.2 15.4 15.8 15.6 15.6 15.1 15.6 15.3 15.5 15.3 14.6 14.5 14.4 14.2 15.1 14.2 14.6 13.8 11.9 11.7 13.6 11.1 8.9 9.1 13.2 14.4 14.5 14.5 14.3 14.2 14.1 13.8 13.7 13.7 13.6 13.4 13.1 12.8 12.6 12.3 12.1 12.1
15.9 16.0 15.6 15.3 15.8 15.6 15.6 15.3 16.4 15.3 14.8 15.6 14.9 14.4 14.4 14.6 15.0 14.3 15.0 13.4 13.9 13.0 14.7 14.8 14.8 14.0 14.4 15.7 15.3 15.4 15.3 15.2 14.6 14.9 13.6 13.7 12.8 14.1 14.2 14.0 13.9 13.5 13.3 12.9
15.8 13.6 15.6 16.3 15.3 15.4 15.6 14.7 15.8 16.4 15.2 15.4 15.6 14.4 14.6 14.5 14.5 14.1 13.8 14.9 15.0 15.1 15.4 15.2 15.4 15.2 15.0 15.1 15.4 16.1 16.0 15.9 14.4 15.6 15.3 15.5 15.1 14.5 15.1 14.7 14.5 13.6 14.7 14.4